Weather in Bến Tre

Vietnam     10°14′16″N   106°22′34″E
В апреле 2022 года жителям России запретили посещать сайт meteo.paraplan.net по решению Генеральной прокуратуры. Аудитория сайта уменьшилась в 10 раз. Владельцы сайта не видят смысла в поддержке погодного сервера в таких условиях. Сайт будет закрыт в октябре.
temp.,
°C
wind,
m/s
gust,
m/s
humid.,
%
clouds,
%
prec.,
mm/h
press.,
hPa
HPBL,
m
26 september, mon
mon2601:00+25w1195100 1.8 100918
04:00+24nw2696100 0.8 1008225
07:00+24nw139597 0.8 1008133
10:00+25w2491100 0.0 1009238
13:00+30wsw346899 0.1 1007999
16:00+26wnw2587100 4.9 1006189
19:00+25wnw1291100 6.2 100826
22:00+24wnw2395100 0.8 100984
27 september, tue
tue2701:00+23nnw1698100 5.9 1007237
04:00+24nw1597100 0.0 1006213
07:00+24nw1596100 0.0 1007214
10:00+28wnw3672100 0.0 1008982
13:00+26nw2689100 1.8 1005298
16:00+26wsw3688100 2.9 1004362
19:00+24wsw41192100 10.4 1005400
22:00+24wsw41293100 0.6 1007583
28 september, wed
wed2801:00+25wsw41289100 0.6 1004696
04:00+25wsw51384100 0.1 1003912
07:00+25wsw41387100 0.1 10051018
10:00+28w61477100 0.0 10051189
13:00+27wsw51481100 0.0 10021263
16:00+26wsw61583100 0.0 10021184
19:00+25wsw51388100 0.1 10041050
22:00+24sw3129797 1.8 1006612
29 september, thu
thu2901:00+24sw41392100 3.4 1004806
04:00+24sw31392100 0.1 1004823
07:00+25sw31191100 0.1 1006696
10:00+26wsw41088100 2.7 1007816
13:00+28wsw488656 5.6 1005945
16:00+28wsw498310 1.7 10041000
19:00+24sw279299 1.8 1006194
22:00+24sw239377 0.0 100979
30 september, fri
fri3001:00+24sw2793100 0.0 1007259
04:00+24sw1794100 0.0 1007241
07:00+25sw27905 0.0 1008342
10:00+30wsw2465100 0.0 10091194
13:00+29wsw3472100 1.6 10061010
16:00+27sw3688100 2.6 1005618
19:00+25ssw2695100 4.3 1007173
22:00+24wsw2896100 0.0 1008261